Regional Weather Roundup
Issued by NWS

Home | Current Version | Previous Version | Graphics & Text | Print | Product List | Glossary On
Versions: 1 2 3 4 5 6 7 8 9 10 11 12 13 14 15 16 17 18 19 20 21 22 23 24 25 26 27 28 29 30 31 32 33 34 35 36 37 38 39 40 41 42 43 44 45 46 47 48 49 50
326
ASUS45 KSLC 290910
RWRUT

UTAH REGIONAL WEATHER ROUNDUP
NATIONAL WEATHER SERVICE SALT LAKE CITY UT
300 AM MDT WED MAR 29 2017

UTZ001>011-023>025-291000-

NORTHERN UTAH

CITY           SKY/WX    TMP DP  RH WIND       PRES   REMARKS
BRIGHAM CITY     N/A     38  30  75 W5        30.24S WCI  34
HILL AFB       CLEAR     38  29  69 N3        30.23S
LOGAN          CLEAR     36  29  75 CALM      30.25F
OGDEN          CLEAR     36  29  75 NW3       30.23S
SALT LAKE CITY CLEAR     39  32  76 CALM      30.23S
TOOELE VALLEY  CLEAR     32  30  93 S5        30.25S WCI  27
WENDOVER       CLEAR     42  28  57 VRB3      30.25F
HEBER CITY     PTCLDY    30  25  80 CALM      30.22R
WEST JORDAN    CLEAR     40  36  84 NW6       30.24S

$$

UTZ011>015-024>027-291000-

CENTRAL/NORTHEAST UTAH

CITY           SKY/WX    TMP DP  RH WIND       PRES   REMARKS
PROVO AIRPORT  PTCLDY    36  30  79 CALM      30.24R
MOAB/CANYONLAN CLEAR     42  30  62 NW13      30.06R
DELTA          CLEAR     34  28  80 CALM      30.24S
PRICE          CLEAR     39  24  55 NW12G18   30.11S WCI  32
ROOSEVELT      CLEAR     36  32  87 SW7       30.15R WCI  30
VERNAL         CLEAR     35  27  72 N6        30.12S WCI  30

$$

UTZ013>016-019>022-027-291000-

SOUTHERN UTAH

CITY           SKY/WX    TMP DP  RH WIND       PRES   REMARKS
BRYCE CANYON   CLEAR     28  21  75 NW9       30.18S WCI  19
CEDAR CITY     CLEAR     29  24  82 NE5       30.21R WCI  24
MILFORD        CLEAR     30  25  81 CALM      30.23S
ST GEORGE      MOSUNNY   49  28  44 CALM      30.14R
HANKSVILLE     CLEAR     45  25  45 NW6       30.11S
BLANDING       CLEAR     42  29  58 NW18G28   30.04R

$$

REGIONAL REPORTS     COLORADO/ARIZONA

CITY           SKY/WX    TMP DP  RH WIND       PRES   REMARKS
CRAIG, CO      CLEAR     33  27  78 CALM      30.11S
GRAND JUNCTION CLEAR     39  32  76 E3        30.05R
RIFLE, CO      CLOUDY    39  31  72 SW5       30.04S
MONTROSE, CO   PTCLDY    39  31  72 N6        30.04R WCI  35
CORTEZ, CO     CLOUDY    43  31  62 NW10G21   29.94R
COLORADO CITY    N/A     32  27  80 CALM      30.16S
PAGE, AZ       CLEAR     49  26  41 NW7       30.06R
GRAND CANYON   CLEAR     25  22  88 NW3       30.12R
KINGMAN, AZ    CLEAR     47  11  23 N9        30.10S
FLAGSTAFF, AZ  CLEAR     34  21  59 VRB3      30.07R

$$

REGIONAL REPORTS    NEVADA/IDAHO/WYOMING

CITY           SKY/WX    TMP DP  RH WIND       PRES   REMARKS
LAS VEGAS, NV  CLEAR     57  25  29 SW5       30.11F
ELY, NY        CLEAR     26  21  81 SW3       30.27R
ELKO, NV       CLEAR     31  26  82 CALM      30.28S
POCATELLO, ID  CLEAR     40  29  64 SW14      30.23F WCI  32
BURLEY, ID     CLEAR     37  27  67 SW9       30.22F WCI  30
FORT BRIDGER,    N/A     29  26  89 W10       30.24S WCI  20
EVANSTON, WY   CLOUDY    27  20  75 SW6       30.22S WCI  20
ROCK SPRINGS,  CLEAR     30  24  78 SW13      30.17R WCI  20
KEMMERER, WY     N/A     30  21  69 N5        30.20S WCI  25

$$




USA.gov is the U.S. government's official web portal to all federal, state and local government web resources and services.